Cedar Rapids, IA

4:23 PM CST on December 03, 2016 (GMT -0600)
The Eastern Iowa Airport

Weather History for KCID - December, 2013

Change the Weather History Date:

Wednesday, December 4, 2013

  Actual Average Record
Temperature  
Mean Temperature 36 °F 27 °F  
Max Temperature 49 °F 36 °F 69 °F (1998)
Min Temperature 22 °F 19 °F -5 °F (1991)
Degree Days  
Heating Degree Days 29 38  
Month to date heating degree days 113 148  
Since 1 July heating degree days 1556 1594  
Cooling Degree Days 0 0  
Month to date cooling degree days 0 0  
Year to date cooling degree days 884 748  
Moisture  
Dew Point 38 °F    
Average Humidity 91    
Maximum Humidity 100    
Minimum Humidity 81    
Precipitation  
Precipitation 0.04 in 0.06 in 1.24 in (1973)
Month to date precipitation 0.06 0.24  
Year to date precipitation 37.19 33.43  
Sea Level Pressure  
Sea Level Pressure 29.59 in    
Wind  
Wind Speed 12 mph (SSW)    
Max Wind Speed 28 mph    
Max Gust Speed 35 mph    
Visibility 4 miles    
Events Fog , Rain    
T = Trace of Precipitation, MM = Missing Value Source: NWS Daily Summary

Daily Weather History Graph

Daily Weather History Graph

Search for Another Location

Airport or City:

Trip Planner

Search our weather history database for the weather conditions in past years. The results will help you decide how hot, cold, wet, or windy it might be!

Date:

Astronomy

Dec. 04, 2013 Rise Set
Actual Time 7:18 AM CST 4:35 PM CST
Civil Twilight 6:47 AM CST 5:07 PM CST
Nautical Twilight 6:12 AM CST 5:42 PM CST
Astronomical Twilight 5:38 AM CST 6:15 PM CST
Moon 8:46 AM CST (12/4) 6:47 PM CST (12/4)
Length of Visible Light 10h 20m
Length of Day
9h 17m
Waxing Crescent, 4% of the Moon is Illuminated
Dec 4
Waxing Crescent
Dec 9
First Quarter
Dec 17
Full
Dec 25
Last Quarter
Jan 1
New

Hourly Weather History & Observations

Time (CST) Temp. Windchill Dew Point Humidity Pressure Visibility Wind Dir Wind Speed Gust Speed Precip Events Conditions
12:52 AM 41.0 °F 36.4 °F 41.0 °F 100% 29.65 in 0.2 mi ENE 6.9 mph - N/A Fog Fog
1:52 AM 42.1 °F 37.7 °F 41.0 °F 96% 29.64 in 0.2 mi East 6.9 mph - N/A Fog Fog
2:52 AM 41.0 °F 36.4 °F 39.9 °F 96% 29.63 in 0.2 mi East 6.9 mph - N/A Fog Fog
3:52 AM 42.1 °F 37.7 °F 41.0 °F 96% 29.60 in 0.2 mi ESE 6.9 mph - N/A Fog Fog
4:52 AM 42.1 °F 39.2 °F 42.1 °F 100% 29.61 in 0.2 mi ESE 4.6 mph - N/A Fog Fog
5:52 AM 43.0 °F 39.5 °F 42.1 °F 97% 29.59 in 0.2 mi East 5.8 mph - N/A Fog Fog
6:52 AM 44.1 °F 40.8 °F 43.0 °F 96% 29.59 in 0.1 mi SE 5.8 mph - N/A Fog Fog
7:52 AM 44.1 °F 40.1 °F 44.1 °F 100% 29.60 in 0.1 mi South 6.9 mph - N/A Fog Fog
8:52 AM 45.0 °F 42.6 °F 44.1 °F 97% 29.59 in 0.1 mi SSE 4.6 mph - N/A Fog Fog
9:52 AM 45.0 °F 41.2 °F 44.1 °F 97% 29.57 in 0.2 mi East 6.9 mph - N/A Fog Fog
10:52 AM 45.0 °F 41.8 °F 45.0 °F 100% 29.55 in 0.2 mi ESE 5.8 mph - 0.01 in Fog , Rain Light Rain
11:52 AM 46.9 °F - 46.0 °F 97% 29.51 in 0.2 mi SE 5.8 mph - 0.00 in Fog Fog
12:39 PM 48.2 °F - 46.4 °F 93% 29.47 in 1.2 mi SSE 9.2 mph - 0.01 in   Overcast
12:49 PM 48.2 °F - 46.4 °F 93% 29.47 in 0.5 mi SSE 9.2 mph - 0.01 in Fog Fog
12:52 PM 48.0 °F - 46.9 °F 96% 29.48 in 0.5 mi SSE 8.1 mph - 0.01 in Fog Fog
1:25 PM 48.2 °F - 46.4 °F 93% 29.45 in 1.2 mi SSE 5.8 mph - 0.00 in Rain Light Rain
1:52 PM 48.0 °F - 46.9 °F 96% 29.44 in 2.0 mi SSE 10.4 mph - 0.00 in   Overcast
2:52 PM 48.9 °F - 48.0 °F 97% 29.45 in 2.0 mi South 10.4 mph - 0.00 in Rain Light Rain
2:59 PM 46.4 °F 38.1 °F 44.6 °F 93% 29.46 in 3.0 mi West 24.2 mph 28.8 mph 0.01 in Rain Light Rain
3:13 PM 44.6 °F 36.9 °F 42.8 °F 93% 29.47 in 3.0 mi West 18.4 mph 26.5 mph 0.01 in Rain Light Rain
3:19 PM 44.6 °F 36.6 °F 42.8 °F 93% 29.47 in 2.5 mi West 19.6 mph 27.6 mph 0.01 in Rain Light Rain
3:52 PM 39.0 °F 28.5 °F 37.0 °F 93% 29.52 in 2.5 mi West 23.0 mph - 0.01 in   Overcast
4:27 PM 35.6 °F 25.9 °F 33.8 °F 93% 29.54 in 2.5 mi West 16.1 mph 27.6 mph 0.01 in   Overcast
4:52 PM 35.1 °F 24.1 °F 33.1 °F 92% 29.58 in 2.5 mi West 19.6 mph 24.2 mph 0.01 in   Overcast
4:59 PM 35.6 °F 25.2 °F 32.0 °F 87% 29.56 in 10.0 mi West 18.4 mph - N/A   Overcast
5:52 PM 33.1 °F 22.2 °F 30.0 °F 89% 29.62 in 10.0 mi West 17.3 mph - N/A   Overcast
6:52 PM 30.9 °F 18.7 °F 28.0 °F 89% 29.64 in 10.0 mi WSW 19.6 mph - N/A   Overcast
7:52 PM 28.0 °F 14.3 °F 25.0 °F 88% 29.70 in 10.0 mi West 21.9 mph 29.9 mph N/A   Overcast
8:52 PM 26.1 °F 10.4 °F 21.9 °F 84% 29.73 in 10.0 mi West 26.5 mph 32.2 mph N/A   Overcast
9:52 PM 24.1 °F 9.4 °F 19.0 °F 81% 29.77 in 10.0 mi West 20.7 mph 27.6 mph N/A   Overcast
10:52 PM 23.0 °F 8.3 °F 18.0 °F 81% 29.79 in 10.0 mi West 19.6 mph 25.3 mph N/A   Overcast
10:59 PM 23.0 °F 8.0 °F 17.6 °F 80% 29.76 in 10.0 mi West 20.7 mph 26.5 mph N/A   Overcast
11:52 PM 23.0 °F 7.6 °F 18.0 °F 81% 29.85 in 10.0 mi West 21.9 mph 28.8 mph N/A   Overcast